#timestamp,LO_Frequency,Hit,StdDev 
1706828415.6,286047000.2,N
1706828435.5,286046999.7,N
1706828455.3,286047000.1,N
1706828475.2,286047001.5,N
1706828495.9,286047003.6,N
1706828515.7,286047004.4,N
1706828535.6,286047003.9,N
1706828555.4,286047003.8,N
1706828575.2,286047003.5,N
1706828595.1,286047002.9,N
1706828596.0,286047002.9,N
1706828615.8,286047004.9,N
1706828635.7,286047006.7,Y
1706828655.5,286047003.8,P
1706828675.3,286047002.9,P
1706828695.2,286047003.4,P
1706828715.0,286047002.3,Y
1706828715.9,286047002.3,P
1706828735.8,286046998.1,P
1706828755.6,286046997.4,N
1706828775.4,286046999.0,N
1706828795.3,286046999.0,N
1706828815.1,286046999.5,N
1706828816.0,286046999.5,N
1706828835.8,286046999.8,N
1706828855.7,286046999.0,N
1706828875.5,286047000.6,N
1706828895.3,286047001.2,N
1706828915.2,286046998.6,N
1706828935.0,286046999.3,N
1706828935.9,286046999.3,N
1706828955.8,286047000.3,N
1706828975.6,286047000.9,N
1706828995.4,286046999.0,N
1706829015.3,286046998.9,N
1706829035.1,286046998.2,N
1706829055.8,286046998.1,N
1706829075.7,286047000.6,N
1706829095.5,286046999.8,N
1706829115.3,286047001.1,N
1706829135.2,286047000.8,N
1706829155.0,286046999.3,N
1706829155.9,286046999.3,N
1706829175.8,286046998.2,N
1706829195.6,286046997.7,N
1706829215.4,286046995.6,Y
1706829235.3,286046995.3,P
1706829255.1,286046995.0,N
1706829275.8,286046997.2,N
1706829295.7,286046999.3,N
1706829315.5,286046999.1,N
1706829335.4,286046998.4,N
1706829355.2,286046995.3,N
1706829375.0,286046997.8,N
1706829375.9,286046997.8,N
1706829395.8,286046998.4,N
1706829415.6,286046998.1,N
1706829435.4,286046998.2,N
1706829455.3,286046998.6,N
1706829475.1,286047000.4,N
1706829495.8,286047000.3,N
1706829515.7,286047001.0,N
1706829535.5,286047000.4,N
1706829555.3,286047000.9,N
1706829575.2,286046998.4,N
1706829595.0,286046998.1,N
1706829595.9,286046998.1,N
1706829615.8,286047000.4,N
1706829635.6,286047000.7,N
1706829655.4,286047002.3,N
1706829675.3,286047001.1,N
1706829695.1,286046998.1,N
1706829715.8,286046998.9,N
1706829735.7,286047000.5,N
1706829755.5,286046998.4,N
1706829775.4,286046999.2,N
1706829795.2,286046999.0,N
1706829815.0,286046998.0,N
1706829815.9,286046998.0,N
1706829835.8,286046995.7,Y
1706829855.6,286046995.3,P
1706829875.4,286047000.7,N
1706829895.3,286046998.6,N
1706829915.1,286046998.1,N
1706829935.9,286047000.6,N
1706829955.7,286047000.8,N
1706829975.5,286046999.8,N
1706829995.4,286047002.6,N
1706830015.2,286047001.9,N
1706830035.0,286047004.3,N
1706830035.9,286047004.3,N
1706830055.8,286047002.8,N
1706830075.6,286047002.6,N
1706830095.5,286047002.8,N
1706830115.3,286047000.1,N
1706830135.1,286047002.7,N
1706830155.9,286046998.5,N
1706830175.7,286047001.0,N
1706830195.5,286047000.8,N
1706830215.4,286047000.8,N
1706830235.2,286046998.5,N
1706830255.1,286047002.3,N
1706830256.0,286047002.3,N
1706830275.8,286046999.7,N
1706830295.6,286047002.2,N
1706830315.5,286047002.0,N
1706830335.3,286047003.4,N
1706830355.1,286047003.1,N
1706830375.9,286047001.8,N
1706830395.7,286047004.1,N
1706830415.5,286047006.0,N
1706830435.4,286047005.6,N
1706830455.2,286047001.7,N
1706830475.1,286047003.8,N
1706830476.0,286047003.8,N
1706830495.8,286047003.1,N
1706830515.6,286047004.5,N
1706830535.5,286047003.0,N
1706830555.3,286047005.4,Y
1706830575.1,286047005.4,P
1706830595.9,286047004.1,N
1706830615.7,286047003.6,N
1706830635.6,286047006.0,Y
1706830655.4,286047001.0,P
1706830675.2,286047000.9,N
1706830695.1,286046998.3,N
1706830696.0,286046998.3,N
1706830715.8,286047000.1,N
1706830735.6,286046998.3,N
1706830755.5,286046998.3,N
1706830775.3,286046998.1,N
1706830795.1,286046999.0,N
1706830815.9,286046997.8,N
1706830835.7,286046996.9,N
1706830855.5,286047000.6,N
1706830875.4,286047001.2,N
1706830895.2,286046999.2,N
1706830915.1,286046999.3,N
1706830916.0,286046999.3,N
1706830935.8,286046999.4,N
1706830955.6,286046998.4,N
1706830975.5,286046999.4,N
1706830995.3,286046995.0,Y
1706831015.1,286046997.0,P
1706831035.9,286046999.0,N
1706831055.7,286046997.2,N
1706831075.5,286046997.0,N
1706831095.4,286046997.8,N
1706831115.2,286046997.0,Y
1706831135.1,286047002.0,P
1706831136.0,286047002.0,N
1706831155.8,286047001.8,N
1706831175.6,286047002.4,N
1706831195.5,286047002.3,N
1706831215.3,286047001.5,N
1706831235.1,286047004.4,N
1706831255.9,286047001.5,N
1706831275.7,286047003.9,N
1706831295.5,286047001.9,N
1706831315.4,286047002.3,N
1706831335.2,286047001.3,N
1706831355.0,286047004.0,N
1706831356.0,286047004.0,N
1706831375.8,286047002.1,N
1706831395.6,286047002.5,N
1706831415.5,286047001.6,N
1706831435.3,286047001.5,N
1706831455.1,286046999.8,N
1706831475.9,286047004.4,Y
1706831495.7,286046999.0,P
1706831515.5,286046999.6,N
1706831535.4,286047000.8,N
1706831555.2,286046996.7,N
1706831575.0,286046997.0,N
1706831576.0,286046997.0,N
1706831595.8,286046998.4,N
1706831615.6,286047000.5,N
1706831635.5,286047002.8,N
1706831655.3,286047000.1,N
1706831675.1,286047002.8,N
1706831695.9,286047000.6,N
1706831715.7,286046996.8,N
1706831735.5,286046997.2,N
1706831755.4,286046999.1,N
1706831775.2,286046996.5,N
1706831795.0,286046996.8,N
1706831796.0,286046996.8,N
1706831815.8,286046997.4,N
1706831835.6,286046999.5,N
1706831855.5,286046999.2,N
1706831875.3,286046999.1,N
1706831895.1,286046998.3,N
1706831915.9,286046997.3,N
1706831935.7,286046995.8,N
1706831955.5,286046997.7,N
1706831975.4,286046998.1,N
1706831995.2,286047001.2,N
